Location: Champs
(48.8539°N, 2.6040°E)
Time: 12:40:46
(UTC+00:00)

Cosmos 1455 Rocket - Pass Details

Date: 26 October 2021
Orbit: 604 x 630 km, 82.5° (Epoch: 06 December)

Event Time Altitude Azimuth Distance (km) Brightness Sun altitude
Rises 05:04:44 0° 342° (NNW) 2,932 6.3 -14.1°
Reaches altitude 10° 05:07:09 10° 332° (NNW) 2,017 5.4 -13.7°
Maximum altitude 05:11:07 32° 270° (W) 1,084 3.7 -13.1°
Drops below altitude 10° 05:15:02 10° 208° (SSW) 1,990 5.4 -12.4°
Sets 05:17:25 0° 198° (SSW) 2,887 6.4 -12.0°
